sat.trackr.live / text

‹ back to catalog

STARLINK-2559

NORAD 48298 · 2021-036Y

PAYLOAD ACTIVE UNKNOWN

§ Identity

Operator
Country
US
Launch date
2021-04-29
Launch site
AFETR
Launch vehicle
Mass (kg)
RCS (m²)

Purposes: comms

External: N2YO · Heavens-Above · Gunter

§ Orbital elements

Epoch: 2026-05-25T04:48:44.104608Z

Period
93.92 min
Inclination
53.1586°
Eccentricity
0.0001570
Mean motion
15.33295271 rev/d
Perigee alt
464.9 km
Apogee alt
467.1 km
Semi-major
6,844.1 km
B*
1.4188e-3
RAAN
79.4061°
Arg perigee
111.4977°
Mean anomaly
248.6192°
Rev number
28,013

§ Raw data

STARLINK-25591 48298U 21036Y   26145.20051047  .00046202  00000+0  14188-2 0  99972 48298  53.1586  79.4061 0001570 111.4977 248.6192 15.33295271280135

JSON: /api/v1/satellites/48298 · /tle

For live sub-satellite position, see the globe view (requires WebGL).

§ Visibility from observer

Set your observer location to see the next 7 days of passes ≥ 10°. The values pass through the URL so the page stays shareable.

No JS? Fill the form by hand. The geolocation button needs JavaScript.